Regional Weather Roundup
Issued by NWS

Home | Current Version | Previous Version | Graphics & Text | Print | Product List | Glossary On
Versions: 1 2 3 4 5 6 7 8 9 10 11 12 13 14 15 16 17 18 19 20 21 22 23 24 25 26 27 28 29 30 31 32 33 34 35 36 37 38 39 40 41 42 43 44 45 46 47 48 49 50
000
ASUS45 KABQ 191410
RWRNM
WEATHER ROUNDUP FOR NEW MEXICO
NATIONAL WEATHER SERVICE ALBUQUERQUE NM
700 AM MST FRI DEC 19 2014

NOTE: "FAIR" MEANS FEW OR NO CLOUDS BELOW 12,000 FEET AGL WITH NO
       SIGNIFICANT WEATHER OR OBSTRUCTIONS TO VISION.

      THIS PRODUCT IS RELEASED AS TWO VERSIONS.  ONE VERSION NEAR
      THE TOP OF THE HOUR CONTAINING PRELIMINARY DATA FROM ALBUQUERQUE
      AND OTHER STATIONS.  A FINAL VERSION WITH ADDITIONAL DATA IS
      ISSUED ABOUT 10 MINUTES AFTER THE HOUR.

NMZ501-503-504-510>518-191500-
NORTHWEST PLATEAU/NORTHCENTRAL MOUNTAINS

CITY           SKY/WX    TMP DP  RH WIND       PRES   REMARKS
FARMINGTON     MOCLDY    22  21  96 NE6       30.23R FOG     WCI  14
LOS ALAMOS     PTCLDY    25  19  78 CALM      30.16R
SANTA FE       PTCLDY    22  19  89 NW5       30.15R WCI  16
TAOS           CLOUDY    19  16  86 N5        30.18R WCI  13
ANGEL FIRE     FOG        1  -2  87 CALM      30.14R VSB 1/4

$$
NMZ402-403-502-505>509-191500-
WESTCENTRAL MOUNTAINS/SOUTHWEST MOUNTAINS

CITY           SKY/WX    TMP DP  RH WIND       PRES   REMARKS
GALLUP         MOCLDY    21  15  78 CALM      30.24R
GRANTS         PTCLDY    21  20  93 CALM      30.23R
SILVER CITY    CLEAR     30  28  93 N9        30.20R WCI  22

$$
NMZ407-409-411-412-191500-
SOUTHERN DESERTS

CITY           SKY/WX    TMP DP  RH WIND       PRES   REMARKS
LORDSBURG      FOG       32  32 100 SW7       30.20R VSB 1/4 WCI  26
DEMING         CLEAR     26  26 100 CALM      30.19R
LAS CRUCES     CLEAR     34  33  97 N6        30.19R WCI  29
HOLLOMAN AFB   PTCLDY    34  33  99 NW6       30.18R WCI  28
ALAMOGORDO     PTCLDY    34  32  93 S5        30.19R FOG     WCI  30
T OR C         CLEAR     30  26  85 CALM      30.19R

$$
NMZ519>523-191500-
CENTRAL VALLEYS/CENTRAL HIGHLANDS

CITY           SKY/WX    TMP DP  RH WIND       PRES   REMARKS
ALBUQUERQUE    PTCLDY    32  25  75 N5        30.21R WCI  27
DOUBLE EAGLE   PTCLDY    30  23  74 NW14      30.19R WCI  20
MORIARTY ARPT  FAIR      27  22  80 W3        30.16R
CLINES CORNERS CLEAR     23  20  88 NW18      30.09R WCI   9
BELEN          FAIR      23  21  93 N6        30.22R WCI  16
SOCORRO        FAIR      27  26  96 CALM      30.20R

$$
NMZ524>526-539-540-191500-
SOUTHCENTRAL MOUNTAINS

CITY           SKY/WX    TMP DP  RH WIND       PRES   REMARKS
RUIDOSO        CLEAR     28  23  80 W15       30.15R WCI  17

$$
NMZ527>531-191500-
NORTHEAST HIGHLANDS/NORTHEAST PLAINS

CITY           SKY/WX    TMP DP  RH WIND       PRES   REMARKS
LAS VEGAS      CLEAR     24  14  65 N3        30.10R
RATON          CLEAR     20  17  88 NE6       30.09R WCI  12
CLAYTON        CLEAR     27  24  89 W7        30.09R WCI  19

$$
NMZ532>537-191500-
EASTCENTRAL PLAINS

CITY           SKY/WX    TMP DP  RH WIND       PRES   REMARKS
TUCUMCARI      CLOUDY    35  31  85 N5        30.12R WCI  31
CANNON AFB     CLOUDY    36  34  93 W6        30.11R FOG     WCI  31
CLOVIS AIRPORT CLOUDY    36  34  93 SW9       30.11R WCI  29

$$
NMZ028-029-538-191500-
SOUTHEAST PLAINS

CITY           SKY/WX    TMP DP  RH WIND       PRES   REMARKS
ROSWELL        CLEAR     30  27  88 W7        30.13R WCI  23
ARTESIA        CLEAR     34  32  93 W8        30.16R WCI  27
CARLSBAD       CLEAR     38  32  79 W12       30.14R WCI  30
HOBBS          FOG       32  32 100 CALM      30.15R VSB 1/8


$$



USA.gov is the U.S. government's official web portal to all federal, state and local government web resources and services.